Location: Vsetin
(49.3330°N, 18.0000°E)
Time: 11:11:30
(UTC+01:00)

ISS - Visible Passes

Search period start: 17 November 2025 00:00
Search period end: 27 November 2025 00:00
Orbit: 415 x 420 km, 51.6° (Epoch: 16 November)

Date Brightness Start Highest point End Pass type
(mag) Time Alt. Az. Time Alt. Az. Time Alt. Az.
17 Nov -2.3 16:38:16 10° SSW 16:41:05 25° SE 16:43:55 10° E visible
17 Nov -3.5 18:14:15 10° WSW 18:17:12 66° W 18:17:12 66° W visible
18 Nov -3.8 17:26:05 10° WSW 17:29:26 74° SSE 17:30:57 29° ENE visible
18 Nov -0.8 19:03:00 10° W 19:03:52 17° WNW 19:03:52 17° WNW visible
19 Nov -3.3 16:37:59 10° SW 16:41:15 52° SSE 16:44:32 10° ENE visible
19 Nov -3.1 18:14:42 10° W 18:17:34 53° NW 18:17:34 53° NW visible
20 Nov -3.7 17:26:24 10° W 17:29:44 70° NNW 17:31:12 30° ENE visible
20 Nov -0.7 19:03:24 10° WNW 19:04:07 15° WNW 19:04:07 15° WNW visible
21 Nov -3.8 16:38:05 10° WSW 16:41:27 87° NNW 16:44:48 10° ENE visible
21 Nov -2.9 18:15:05 10° WNW 18:17:44 45° NW 18:17:44 45° NW visible
22 Nov -3.5 17:26:42 10° W 17:30:00 56° N 17:31:19 31° ENE visible
22 Nov -0.6 19:03:36 10° WNW 19:04:13 15° WNW 19:04:13 15° WNW visible
23 Nov -3.6 16:38:17 10° W 16:41:37 61° N 16:44:53 10° ENE visible
23 Nov -2.9 18:15:15 10° WNW 18:17:48 46° NW 18:17:48 46° NW visible
24 Nov -3.6 17:26:51 10° WNW 17:30:09 58° N 17:31:22 34° ENE visible
24 Nov -0.6 19:03:39 10° WNW 19:04:17 15° WNW 19:04:17 15° WNW visible
25 Nov -3.5 16:38:23 10° WNW 16:41:41 55° N 16:44:58 10° E visible
25 Nov -3.0 18:15:13 10° WNW 18:17:52 53° W 18:17:52 53° W visible
26 Nov -3.9 17:26:47 10° WNW 17:30:08 78° NNE 17:31:31 32° E visible
26 Nov -0.6 19:03:43 10° W 19:04:26 15° W 19:04:26 15° W visible
